Weather History for Fortuna, CA

Change the Weather History Date:

Tuesday, February 5, 2013

  Actual Average (KEKA) Record (KEKA)
Temperature  
Mean Temperature 48 °F 49 °F  
Max Temperature 53 °F 56 °F 73 °F (1963)
Min Temperature 42 °F 41 °F 25 °F (1899)
Degree Days  
Heating Degree Days 16 16  
Month to date heating degree days 80  
Since 1 July heating degree days 2551  
Cooling Degree Days 0 0  
Month to date cooling degree days 0  
Year to date cooling degree days 0  
Moisture  
Dew Point 46 °F    
Average Humidity 97    
Maximum Humidity 100    
Minimum Humidity 77    
Precipitation  
Precipitation 0.01 in 0.20 in 1.79 in (1897)
Month to date precipitation 1.00  
Year to date precipitation 7.50  
Since 1 July precipitation 24.55  
Snow  
Snow 0.00 in 0.10 in 0.00 in (2002)
Month to date snowfall 0.1  
Since 1 July snowfall 0.1  
Snow Depth -    
Sea Level Pressure  
Sea Level Pressure 30.13 in    
Wind  
Wind Speed 4 mph (ESE)    
Max Wind Speed 13 mph    
Max Gust Speed -    
Visibility 9 miles    
Events      
T = Trace of Precipitation, MM = Missing Value Source: NWS Daily Summary

Daily Weather History Graph

Daily Weather History Graph

Search for Another Location

Airport:

Trip Planner

Search our weather history database for the weather conditions in past years. The results will help you decide how hot, cold, wet, or windy it might be!

Date:

Astronomy

Feb. 05, 2013 Rise Set
Actual Time 7:21 AM PST 5:39 PM PST
Civil Twilight 6:53 AM PST 6:08 PM PST
Nautical Twilight 6:20 AM PST 6:40 PM PST
Astronomical Twilight 5:48 AM PST 7:12 PM PST
Moon 3:10 AM PST (2/5) 1:02 PM PST (2/5)
Length of Visible Light 11h 15m
Length of Day
10h 18m
Waning Crescent, 25% of the Moon is Illuminated
Feb 5
Waning Crescent
Feb 9
New
Feb 17
First Quarter
Feb 25
Full
Mar 4
Last Quarter

Hourly Weather History & Observations

Time (PST) Temp. Windchill Dew Point Humidity Pressure Visibility Wind Dir Wind Speed Gust Speed Precip Events Conditions
12:15 AM 44.6 °F - 44.6 °F 100% 30.14 in 5.0 mi Calm Calm - N/A   Overcast
12:35 AM 44.6 °F - 44.6 °F 100% 30.14 in 8.0 mi Calm Calm - N/A   Overcast
12:55 AM 44.6 °F - 44.6 °F 100% 30.13 in 10.0 mi Calm Calm - N/A   Overcast
1:15 AM 44.6 °F - 44.6 °F 100% 30.12 in 10.0 mi Calm Calm - N/A   Overcast
1:35 AM 44.6 °F - 44.6 °F 100% 30.12 in 10.0 mi Calm Calm - N/A   Overcast
1:55 AM 44.6 °F - 44.6 °F 100% 30.11 in 9.0 mi Calm Calm - N/A   Overcast
2:15 AM 44.6 °F 43.1 °F 44.6 °F 100% 30.11 in 10.0 mi SE 3.5 mph - N/A   Overcast
2:35 AM 44.6 °F - 44.6 °F 100% 30.11 in 10.0 mi Calm Calm - N/A   Overcast
2:55 AM 44.6 °F 40.2 °F 44.6 °F 100% 30.10 in 10.0 mi SE 8.1 mph - N/A   Overcast
3:15 AM 44.6 °F 41.4 °F 44.6 °F 100% 30.10 in 10.0 mi SE 5.8 mph - N/A   Overcast
3:35 AM 44.6 °F 40.7 °F 44.6 °F 100% 30.10 in 9.0 mi SE 6.9 mph - N/A   Overcast
3:55 AM 44.6 °F - 44.6 °F 100% 30.10 in 10.0 mi Calm Calm - N/A   Overcast
4:15 AM 44.6 °F 41.4 °F 44.6 °F 100% 30.10 in 10.0 mi SE 5.8 mph - N/A   Overcast
4:35 AM 44.6 °F 41.4 °F 44.6 °F 100% 30.10 in 10.0 mi SE 5.8 mph - N/A   Overcast
4:55 AM 44.6 °F 40.7 °F 44.6 °F 100% 30.09 in 10.0 mi SE 6.9 mph - N/A   Overcast
5:15 AM 44.6 °F 40.7 °F 44.6 °F 100% 30.09 in 10.0 mi SE 6.9 mph - N/A   Overcast
5:35 AM 44.6 °F 40.7 °F 44.6 °F 100% 30.09 in 10.0 mi ESE 6.9 mph - N/A   Overcast
5:55 AM 44.6 °F 40.7 °F 44.6 °F 100% 30.09 in 10.0 mi SE 6.9 mph - N/A   Overcast
6:15 AM 44.6 °F 39.2 °F 44.6 °F 100% 30.08 in 10.0 mi SE 10.4 mph - N/A   Overcast
6:35 AM 44.6 °F 39.7 °F 44.6 °F 100% 30.08 in 10.0 mi ESE 9.2 mph - N/A   Overcast
6:55 AM 44.6 °F 39.2 °F 44.6 °F 100% 30.08 in 10.0 mi ESE 10.4 mph - N/A   Overcast
7:15 AM 44.6 °F 38.8 °F 44.6 °F 100% 30.08 in 10.0 mi ESE 11.5 mph - N/A   Overcast
7:55 AM 44.6 °F 40.2 °F 44.6 °F 100% 30.10 in 10.0 mi SE 8.1 mph - N/A   Overcast
8:15 AM 46.4 °F 42.4 °F 46.4 °F 100% 30.10 in 10.0 mi SE 8.1 mph - N/A   Overcast
8:55 AM 46.4 °F 41.1 °F 46.4 °F 100% 30.11 in 5.0 mi ESE 11.5 mph - N/A   Overcast
9:15 AM 46.4 °F 41.1 °F 46.4 °F 100% 30.11 in 3.0 mi ESE 11.5 mph - N/A   Mostly Cloudy
9:35 AM 46.4 °F 40.7 °F 46.4 °F 100% 30.10 in 10.0 mi ESE 12.7 mph - N/A   Overcast
9:55 AM 48.2 °F - 48.2 °F 100% 30.11 in 10.0 mi ESE 12.7 mph - N/A   Overcast
10:15 AM 48.2 °F - 48.2 °F 100% 30.11 in 10.0 mi ESE 10.4 mph - N/A   Overcast
10:35 AM 48.2 °F - 48.2 °F 100% 30.12 in 10.0 mi SE 9.2 mph - N/A   Overcast
10:55 AM 48.2 °F - 48.2 °F 100% 30.13 in 6.0 mi Calm Calm - N/A   Overcast
11:15 AM 50.0 °F - 50.0 °F 100% 30.13 in 4.0 mi Calm Calm - N/A   Mostly Cloudy
11:35 AM 48.2 °F - 48.2 °F 100% 30.14 in 1.0 mi Calm Calm - 0.01 in   Overcast
11:55 AM 50.0 °F - 50.0 °F 100% 30.13 in 10.0 mi Calm Calm - 0.01 in   Partly Cloudy
12:15 PM 50.0 °F - 50.0 °F 100% 30.13 in 10.0 mi Calm Calm - N/A   Scattered Clouds
12:35 PM 53.6 °F - 51.8 °F 94% 30.13 in 10.0 mi Calm Calm - N/A   Mostly Cloudy
12:55 PM 53.6 °F - 50.0 °F 88% 30.13 in 10.0 mi Calm Calm - N/A   Mostly Cloudy
1:15 PM 53.6 °F - 50.0 °F 88% 30.13 in 10.0 mi Calm Calm - N/A   Scattered Clouds
1:55 PM 51.8 °F - 46.4 °F 82% 30.12 in 10.0 mi NNW 8.1 mph - N/A   Scattered Clouds
2:15 PM 53.6 °F - 46.4 °F 77% 30.12 in 10.0 mi NW 11.5 mph - N/A   Scattered Clouds
2:55 PM 50.0 °F - 46.4 °F 87% 30.12 in 10.0 mi NW 5.8 mph - N/A   Clear
3:15 PM 53.6 °F - 46.4 °F 77% 30.12 in 10.0 mi NW 8.1 mph - N/A   Clear
3:35 PM 53.6 °F - 46.4 °F 77% 30.13 in 10.0 mi NW 8.1 mph - N/A   Clear
3:55 PM 53.6 °F - 46.4 °F 77% 30.13 in 10.0 mi WNW 9.2 mph - N/A   Clear
4:15 PM 51.8 °F - 46.4 °F 82% 30.12 in 10.0 mi NW 9.2 mph - N/A   Clear
4:35 PM 51.8 °F - 48.2 °F 88% 30.13 in 10.0 mi NW 9.2 mph - N/A   Clear
4:55 PM 50.0 °F - 48.2 °F 94% 30.14 in 10.0 mi NW 9.2 mph - N/A   Clear
5:15 PM 48.2 °F - 48.2 °F 100% 30.15 in 10.0 mi NW 5.8 mph - N/A   Clear
5:35 PM 48.2 °F - 48.2 °F 100% 30.15 in 10.0 mi Calm Calm - N/A   Clear
6:15 PM 48.2 °F - 48.2 °F 100% 30.15 in 10.0 mi Calm Calm - N/A   Overcast
6:35 PM 48.2 °F - 48.2 °F 100% 30.16 in 10.0 mi Calm Calm - N/A   Mostly Cloudy
6:55 PM 46.4 °F - 46.4 °F 100% 30.16 in 10.0 mi Calm Calm - N/A   Mostly Cloudy
7:15 PM 48.2 °F - 48.2 °F 100% 30.17 in 10.0 mi Calm Calm - N/A   Mostly Cloudy
7:35 PM 46.4 °F - 46.4 °F 100% 30.18 in 10.0 mi Calm Calm - N/A   Mostly Cloudy
7:55 PM 44.6 °F - 44.6 °F 100% 30.18 in 10.0 mi Calm Calm - N/A   Overcast
8:15 PM 46.4 °F - 46.4 °F 100% 30.19 in 10.0 mi Calm Calm - N/A   Overcast
8:35 PM 46.4 °F - 46.4 °F 100% 30.19 in 10.0 mi Calm Calm - N/A   Mostly Cloudy
8:55 PM 44.6 °F - 44.6 °F 100% 30.20 in 10.0 mi Calm Calm - N/A   Mostly Cloudy
9:15 PM 44.6 °F - 44.6 °F 100% 30.20 in 10.0 mi Calm Calm - N/A   Overcast
9:35 PM 44.6 °F - 44.6 °F 100% 30.21 in 10.0 mi Calm Calm - N/A   Overcast
9:55 PM 44.6 °F - 44.6 °F 100% 30.21 in 5.0 mi Calm Calm - N/A   Overcast
10:15 PM 44.6 °F - 44.6 °F 100% 30.22 in 6.0 mi Calm Calm - N/A   Mostly Cloudy
10:35 PM 44.6 °F - 44.6 °F 100% 30.21 in 6.0 mi Calm Calm - N/A   Mostly Cloudy
10:55 PM 44.6 °F 41.4 °F 44.6 °F 100% 30.21 in 10.0 mi ESE 5.8 mph - N/A   Mostly Cloudy
11:35 PM 44.6 °F 41.4 °F 44.6 °F 100% 30.21 in 10.0 mi SE 5.8 mph - N/A   Overcast
11:55 PM 42.8 °F 38.6 °F 42.8 °F 100% 30.21 in 10.0 mi SE 6.9 mph - N/A   Mostly Cloudy